TFV009 LFRS-GMAD

Flight info

Callsign TFV009
Flight time N/A
Altitude 33000
Route ERIGA DCT FUJTI DCT PEPET DCT BAKUP DCT BATAX/N0447F350 DCT ALAGU DCT GIMAL DCT AMSEL UR722 CSD UR975 EKTAL
Aircraft B738/M-SDE2E3FGHIRWXY/LB1

Departure

Time N/A
Airport Nantes Atlantique Airport (LFRS)

Arrival

Time 2026-04-26 07:46
Airport Al Massira Airport (GMAD)
Time Latitude Longitude Altitude Speed Heading
2026-04-26 05:49 43.29230 -5.36692 35196 ft 469 kts 212°
2026-04-26 05:49 43.23609 -5.41255 35192 ft 469 kts 212°
2026-04-26 05:50 43.17985 -5.45810 35194 ft 469 kts 212°
2026-04-26 05:50 43.12401 -5.50324 35188 ft 469 kts 211°
2026-04-26 05:51 43.06785 -5.54852 35192 ft 469 kts 211°
2026-04-26 05:51 43.01158 -5.59381 35189 ft 469 kts 211°
2026-04-26 05:52 42.95527 -5.63903 35183 ft 469 kts 211°
2026-04-26 05:52 42.89899 -5.68413 35188 ft 469 kts 211°
2026-04-26 05:53 42.84263 -5.72920 35188 ft 469 kts 211°
2026-04-26 05:53 42.78634 -5.77411 35187 ft 469 kts 211°
2026-04-26 05:54 42.73012 -5.81887 35188 ft 468 kts 211°
2026-04-26 05:54 42.67388 -5.86356 35185 ft 468 kts 211°
2026-04-26 05:55 42.61767 -5.90812 35186 ft 468 kts 211°
2026-04-26 05:55 42.56150 -5.95256 35184 ft 467 kts 211°
2026-04-26 05:56 42.50531 -5.99693 35186 ft 467 kts 211°
2026-04-26 05:56 42.44912 -6.04120 35184 ft 467 kts 211°
2026-04-26 05:57 42.39271 -6.08555 35235 ft 470 kts 211°
2026-04-26 05:57 42.36446 -6.10772 35477 ft 466 kts 211°
2026-04-26 05:57 42.33666 -6.12951 35913 ft 459 kts 211°
2026-04-26 05:57 42.30924 -6.15098 36321 ft 453 kts 211°
2026-04-26 05:58 42.28215 -6.17218 36731 ft 446 kts 211°
2026-04-26 05:58 42.25541 -6.19308 37015 ft 444 kts 211°
2026-04-26 05:58 42.22864 -6.21399 37099 ft 444 kts 211°
2026-04-26 05:59 42.17499 -6.25585 37178 ft 448 kts 211°
2026-04-26 05:59 42.12080 -6.29803 37185 ft 452 kts 211°
2026-04-26 06:00 42.06619 -6.34045 37188 ft 454 kts 211°
2026-04-26 06:00 42.01137 -6.38295 37171 ft 456 kts 211°
2026-04-26 06:01 41.95635 -6.42551 37173 ft 456 kts 211°
2026-04-26 06:01 41.90137 -6.46796 37157 ft 456 kts 211°
2026-04-26 06:02 41.84685 -6.50998 37164 ft 454 kts 211°
2026-04-26 06:02 41.79222 -6.55200 37142 ft 452 kts 211°
2026-04-26 06:03 41.73785 -6.59374 37151 ft 449 kts 211°
2026-04-26 06:03 41.68146 -6.62881 37152 ft 448 kts 195°
2026-04-26 06:04 41.62066 -6.64667 37142 ft 447 kts 192°
2026-04-26 06:04 41.55979 -6.66336 37145 ft 446 kts 192°
2026-04-26 06:05 41.49899 -6.68043 37149 ft 447 kts 193°
2026-04-26 06:05 41.43812 -6.69784 37144 ft 448 kts 193°
2026-04-26 06:06 41.37711 -6.71538 37147 ft 449 kts 193°
2026-04-26 06:06 41.31585 -6.73297 37140 ft 451 kts 193°
2026-04-26 06:07 41.25446 -6.75055 37149 ft 452 kts 193°
2026-04-26 06:07 41.19280 -6.76817 37143 ft 454 kts 193°
2026-04-26 06:08 41.13098 -6.78580 37133 ft 455 kts 193°
2026-04-26 06:08 41.06896 -6.80345 37145 ft 456 kts 193°
2026-04-26 06:09 41.00690 -6.82108 37145 ft 457 kts 193°
2026-04-26 06:09 40.94471 -6.83871 37142 ft 457 kts 193°
2026-04-26 06:10 40.88301 -6.85617 37138 ft 456 kts 193°
2026-04-26 06:10 40.82092 -6.87371 37136 ft 456 kts 193°
2026-04-26 06:11 40.75901 -6.89116 37136 ft 454 kts 193°
2026-04-26 06:11 40.69721 -6.90855 37138 ft 453 kts 193°
2026-04-26 06:12 40.63558 -6.92585 37135 ft 452 kts 193°
2026-04-26 06:12 40.57409 -6.94309 37139 ft 452 kts 193°
2026-04-26 06:13 40.51267 -6.96027 37134 ft 451 kts 193°
2026-04-26 06:13 40.45127 -6.97742 37133 ft 451 kts 193°
2026-04-26 06:14 40.38990 -6.99453 37128 ft 451 kts 193°
2026-04-26 06:14 40.32855 -7.01160 37126 ft 451 kts 193°
2026-04-26 06:15 40.26708 -7.02867 37128 ft 451 kts 193°
2026-04-26 06:15 40.20557 -7.04572 37121 ft 452 kts 193°
2026-04-26 06:16 40.14393 -7.06277 37117 ft 453 kts 193°
2026-04-26 06:16 40.09253 -7.07697 37118 ft 455 kts 193°
2026-04-26 06:17 40.03057 -7.09405 37107 ft 456 kts 193°
2026-04-26 06:17 39.96841 -7.11116 37106 ft 457 kts 193°
2026-04-26 06:18 39.90616 -7.12826 37104 ft 458 kts 193°
2026-04-26 06:18 39.84376 -7.14537 37103 ft 458 kts 193°
2026-04-26 06:19 39.78132 -7.16246 37094 ft 459 kts 193°
2026-04-26 06:19 39.71887 -7.17952 37103 ft 459 kts 193°
2026-04-26 06:20 39.65636 -7.19656 37090 ft 459 kts 193°
2026-04-26 06:20 39.59393 -7.21355 37097 ft 458 kts 193°
2026-04-26 06:21 39.53152 -7.23051 37099 ft 457 kts 193°
2026-04-26 06:21 39.46928 -7.24738 37089 ft 457 kts 193°
2026-04-26 06:22 39.40751 -7.26410 37092 ft 456 kts 193°
2026-04-26 06:22 39.34554 -7.28084 37090 ft 455 kts 193°
2026-04-26 06:23 39.28369 -7.29752 37090 ft 454 kts 193°
2026-04-26 06:23 39.22190 -7.31416 37093 ft 453 kts 193°
2026-04-26 06:24 39.16019 -7.33074 37094 ft 453 kts 193°
2026-04-26 06:24 39.09837 -7.34733 37092 ft 454 kts 193°
2026-04-26 06:25 39.03647 -7.36390 37093 ft 455 kts 193°
2026-04-26 06:25 38.97435 -7.38051 37093 ft 456 kts 193°
2026-04-26 06:26 38.91210 -7.39712 37101 ft 458 kts 193°
2026-04-26 06:26 38.84959 -7.41377 37078 ft 459 kts 193°
2026-04-26 06:27 38.78693 -7.43043 37094 ft 460 kts 193°
2026-04-26 06:27 38.72413 -7.44709 37090 ft 461 kts 193°
2026-04-26 06:28 38.66119 -7.46376 37086 ft 462 kts 193°
2026-04-26 06:28 38.59820 -7.48042 37084 ft 462 kts 193°
2026-04-26 06:29 38.53513 -7.49706 37086 ft 462 kts 193°
2026-04-26 06:29 38.47216 -7.51365 37084 ft 462 kts 193°
2026-04-26 06:30 38.40919 -7.53022 37072 ft 461 kts 193°
2026-04-26 06:30 38.34687 -7.54658 37083 ft 460 kts 193°
2026-04-26 06:31 38.28378 -7.56311 37084 ft 460 kts 193°
2026-04-26 06:31 38.22109 -7.57952 37080 ft 460 kts 193°
2026-04-26 06:32 38.15849 -7.59587 37087 ft 459 kts 193°
2026-04-26 06:32 38.09593 -7.61219 37081 ft 459 kts 193°
2026-04-26 06:33 38.03355 -7.62983 37086 ft 459 kts 195°
2026-04-26 06:33 37.97195 -7.64873 37082 ft 459 kts 195°
2026-04-26 06:34 37.90988 -7.66771 37077 ft 459 kts 195°
2026-04-26 06:34 37.84774 -7.68643 37089 ft 459 kts 195°
2026-04-26 06:35 37.78554 -7.70504 37086 ft 459 kts 195°
2026-04-26 06:35 37.72331 -7.72360 37082 ft 460 kts 195°
2026-04-26 06:36 37.66105 -7.74214 37080 ft 460 kts 195°
2026-04-26 06:36 37.59873 -7.76068 37085 ft 460 kts 195°
2026-04-26 06:37 37.53642 -7.77918 37083 ft 460 kts 195°
2026-04-26 06:37 37.47405 -7.79768 37085 ft 461 kts 195°
2026-04-26 06:38 37.41115 -7.81353 37069 ft 463 kts 186°
2026-04-26 06:38 37.34673 -7.81673 37076 ft 464 kts 183°
2026-04-26 06:39 37.28223 -7.81875 37081 ft 464 kts 183°
2026-04-26 06:39 37.21810 -7.82139 37060 ft 464 kts 184°
2026-04-26 06:40 37.15356 -7.82451 37057 ft 464 kts 184°
2026-04-26 06:40 37.08904 -7.82777 37052 ft 464 kts 184°
2026-04-26 06:41 37.02450 -7.83102 37052 ft 464 kts 184°
2026-04-26 06:41 36.95988 -7.83425 37046 ft 465 kts 184°
2026-04-26 06:42 36.89531 -7.83746 37054 ft 465 kts 184°
2026-04-26 06:42 36.83067 -7.84066 37056 ft 465 kts 184°
2026-04-26 06:43 36.76606 -7.84386 37058 ft 465 kts 184°
2026-04-26 06:43 36.70142 -7.84706 37058 ft 465 kts 184°
2026-04-26 06:44 36.63676 -7.85025 37058 ft 465 kts 184°
2026-04-26 06:44 36.57214 -7.85343 37057 ft 465 kts 184°
2026-04-26 06:45 36.50748 -7.85661 37058 ft 465 kts 184°
2026-04-26 06:45 36.44289 -7.85978 37049 ft 464 kts 185°
2026-04-26 06:46 36.37830 -7.86293 37050 ft 464 kts 184°
2026-04-26 06:46 36.31376 -7.86609 37042 ft 464 kts 185°
2026-04-26 06:47 36.24928 -7.86926 37047 ft 463 kts 184°
2026-04-26 06:47 36.18486 -7.87240 37035 ft 463 kts 184°
2026-04-26 06:48 36.12099 -7.87552 37044 ft 462 kts 185°
2026-04-26 06:48 36.05669 -7.87863 37032 ft 462 kts 184°
2026-04-26 06:49 35.99251 -7.88176 37027 ft 462 kts 185°
2026-04-26 06:49 35.92823 -7.88139 37052 ft 463 kts 178°
2026-04-26 06:50 35.86391 -7.87481 37028 ft 464 kts 178°
2026-04-26 06:50 35.79958 -7.86805 37031 ft 464 kts 176°
2026-04-26 06:51 35.73515 -7.86194 37016 ft 464 kts 177°
2026-04-26 06:51 35.63845 -7.85319 37023 ft 465 kts 177°
2026-04-26 06:52 35.57395 -7.84739 37007 ft 465 kts 179°
2026-04-26 06:52 35.50940 -7.84158 37023 ft 465 kts 179°
2026-04-26 06:53 35.44481 -7.83576 36998 ft 465 kts 179°
2026-04-26 06:53 35.38026 -7.83010 37000 ft 464 kts 178°
2026-04-26 06:54 35.31588 -7.82470 37005 ft 463 kts 178°
2026-04-26 06:54 35.25158 -7.81933 36987 ft 463 kts 178°
2026-04-26 06:55 35.18734 -7.81398 36981 ft 462 kts 179°
2026-04-26 06:55 35.12326 -7.80868 36988 ft 461 kts 178°
2026-04-26 06:56 35.05928 -7.80335 36983 ft 461 kts 179°
2026-04-26 06:56 34.99531 -7.79803 36969 ft 460 kts 177°
2026-04-26 06:57 34.93140 -7.79274 36980 ft 460 kts 178°
2026-04-26 06:57 34.86756 -7.78744 36977 ft 460 kts 178°
2026-04-26 06:58 34.80365 -7.78209 36973 ft 460 kts 178°
2026-04-26 06:58 34.73972 -7.77682 36970 ft 461 kts 177°
2026-04-26 06:59 34.67576 -7.77213 36971 ft 461 kts 178°
2026-04-26 06:59 34.61211 -7.76779 36972 ft 461 kts 178°
2026-04-26 07:00 34.54810 -7.76334 36968 ft 461 kts 179°
2026-04-26 07:00 34.48401 -7.75885 36962 ft 461 kts 178°
2026-04-26 07:01 34.42004 -7.75433 36964 ft 461 kts 178°
2026-04-26 07:01 34.35605 -7.74982 36961 ft 460 kts 177°
2026-04-26 07:02 34.29215 -7.74533 36960 ft 460 kts 178°
2026-04-26 07:02 34.22822 -7.74089 36956 ft 460 kts 178°
2026-04-26 07:03 34.16440 -7.73626 36962 ft 460 kts 176°
2026-04-26 07:03 34.10061 -7.73038 36963 ft 460 kts 176°
2026-04-26 07:04 34.03688 -7.72427 36956 ft 459 kts 176°
2026-04-26 07:04 33.98392 -7.71932 36955 ft 459 kts 176°
2026-04-26 07:05 33.92015 -7.71344 36953 ft 459 kts 176°
2026-04-26 07:05 33.85645 -7.70761 36953 ft 459 kts 176°
2026-04-26 07:06 33.79268 -7.70178 36952 ft 460 kts 176°
2026-04-26 07:06 33.72890 -7.69595 36944 ft 460 kts 176°
2026-04-26 07:07 33.66507 -7.69012 36940 ft 460 kts 176°
2026-04-26 07:07 33.60129 -7.68431 36940 ft 460 kts 176°
2026-04-26 07:08 33.53743 -7.68246 36932 ft 458 kts 189°
2026-04-26 07:08 33.47729 -7.70436 36933 ft 456 kts 208°
2026-04-26 07:09 33.42199 -7.74152 36963 ft 456 kts 210°
2026-04-26 07:09 33.36645 -7.77802 36959 ft 456 kts 207°
2026-04-26 07:11 33.22198 -7.85671 36960 ft 456 kts 205°
2026-04-26 07:11 33.16433 -7.88837 36955 ft 456 kts 205°
2026-04-26 07:12 33.10670 -7.92023 36954 ft 456 kts 206°
2026-04-26 07:12 33.04913 -7.95207 36957 ft 456 kts 206°
2026-04-26 07:13 32.99151 -7.98388 36960 ft 456 kts 205°
2026-04-26 07:13 32.93390 -8.01562 36959 ft 456 kts 205°
2026-04-26 07:14 32.87627 -8.04732 36955 ft 456 kts 206°
2026-04-26 07:14 32.81868 -8.07896 36965 ft 456 kts 206°
2026-04-26 07:15 32.76104 -8.11058 36956 ft 456 kts 206°
2026-04-26 07:15 32.70380 -8.14192 36960 ft 456 kts 205°
2026-04-26 07:16 32.64617 -8.17345 36965 ft 456 kts 205°
2026-04-26 07:16 32.58852 -8.20493 36960 ft 456 kts 205°
2026-04-26 07:17 32.53103 -8.23629 36908 ft 448 kts 205°
2026-04-26 07:17 32.50295 -8.25158 36478 ft 443 kts 205°
2026-04-26 07:17 32.47496 -8.26682 35883 ft 443 kts 205°
2026-04-26 07:17 32.44696 -8.28205 35305 ft 443 kts 205°
2026-04-26 07:18 32.41903 -8.29725 34835 ft 441 kts 205°
2026-04-26 07:18 32.39127 -8.31233 34459 ft 436 kts 204°
2026-04-26 07:18 32.36379 -8.32726 34033 ft 434 kts 204°
2026-04-26 07:18 32.33642 -8.34211 33511 ft 432 kts 204°
2026-04-26 07:19 32.30930 -8.35680 33240 ft 424 kts 204°
2026-04-26 07:19 32.28265 -8.37125 32876 ft 419 kts 204°
2026-04-26 07:19 32.25617 -8.38559 32364 ft 418 kts 205°
2026-04-26 07:19 32.22977 -8.39987 31903 ft 416 kts 204°
2026-04-26 07:20 32.20359 -8.41403 31480 ft 413 kts 204°
2026-04-26 07:20 32.17747 -8.42815 31028 ft 411 kts 204°
2026-04-26 07:20 32.15155 -8.44215 30656 ft 408 kts 204°
2026-04-26 07:20 32.12585 -8.45602 30258 ft 405 kts 204°
2026-04-26 07:21 32.10023 -8.46984 29770 ft 405 kts 204°
2026-04-26 07:21 32.07478 -8.48357 29331 ft 401 kts 204°
2026-04-26 07:21 32.04950 -8.49719 28856 ft 398 kts 204°
2026-04-26 07:21 32.02440 -8.51071 28459 ft 394 kts 204°
2026-04-26 07:22 31.99956 -8.52407 28032 ft 391 kts 204°
2026-04-26 07:22 31.97492 -8.53733 27618 ft 388 kts 204°
2026-04-26 07:22 31.95040 -8.55051 27127 ft 387 kts 204°
2026-04-26 07:22 31.92590 -8.56367 26710 ft 385 kts 204°
2026-04-26 07:23 31.90170 -8.57666 26371 ft 380 kts 205°
2026-04-26 07:23 31.87772 -8.58953 25926 ft 379 kts 205°
2026-04-26 07:23 31.85366 -8.60243 25459 ft 379 kts 205°
2026-04-26 07:23 31.82984 -8.61520 25160 ft 374 kts 205°
2026-04-26 07:24 31.80631 -8.62781 24808 ft 371 kts 205°
2026-04-26 07:24 31.78279 -8.64040 24334 ft 372 kts 205°
2026-04-26 07:24 31.75926 -8.65299 23926 ft 371 kts 204°
2026-04-26 07:24 31.73586 -8.66551 23574 ft 368 kts 204°
2026-04-26 07:25 31.71268 -8.67790 23274 ft 363 kts 204°
2026-04-26 07:25 31.68981 -8.69012 23006 ft 359 kts 204°
2026-04-26 07:25 31.66716 -8.70221 22735 ft 355 kts 204°
2026-04-26 07:25 31.64462 -8.71424 22481 ft 358 kts 204°
2026-04-26 07:26 31.62182 -8.72641 22231 ft 363 kts 204°
2026-04-26 07:26 31.59879 -8.73869 21976 ft 364 kts 204°
2026-04-26 07:26 31.57580 -8.75094 21714 ft 361 kts 204°
2026-04-26 07:26 31.55300 -8.76308 21455 ft 359 kts 204°
2026-04-26 07:27 31.53032 -8.77515 21203 ft 357 kts 204°
2026-04-26 07:27 31.50766 -8.78694 20951 ft 356 kts 203°
2026-04-26 07:27 31.48493 -8.79835 20699 ft 354 kts 203°
2026-04-26 07:27 31.46258 -8.80943 20463 ft 353 kts 203°
2026-04-26 07:28 31.44000 -8.82060 20221 ft 352 kts 203°
2026-04-26 07:28 31.41749 -8.83175 19981 ft 351 kts 203°
2026-04-26 07:28 31.39503 -8.84290 19739 ft 350 kts 203°
2026-04-26 07:28 31.37265 -8.85402 19504 ft 349 kts 203°
2026-04-26 07:29 31.35034 -8.86513 19263 ft 348 kts 203°
2026-04-26 07:29 31.32808 -8.87620 19024 ft 347 kts 203°
2026-04-26 07:29 31.30588 -8.88725 18792 ft 346 kts 203°
2026-04-26 07:29 31.28371 -8.89828 18571 ft 345 kts 203°
2026-04-26 07:30 31.26163 -8.90925 18341 ft 344 kts 203°
2026-04-26 07:30 31.23962 -8.92019 18091 ft 343 kts 203°
2026-04-26 07:30 31.21769 -8.93108 17832 ft 342 kts 203°
2026-04-26 07:30 31.19583 -8.94193 17559 ft 339 kts 203°
2026-04-26 07:31 31.17420 -8.95267 17296 ft 336 kts 203°
2026-04-26 07:31 31.15276 -8.96331 17035 ft 334 kts 203°
2026-04-26 07:31 31.13147 -8.97386 16794 ft 331 kts 203°
2026-04-26 07:31 31.11031 -8.98435 16530 ft 330 kts 203°
2026-04-26 07:32 31.08924 -8.99478 16258 ft 328 kts 203°
2026-04-26 07:32 31.06829 -9.00516 16020 ft 326 kts 203°
2026-04-26 07:32 31.04750 -9.01545 15775 ft 324 kts 203°
2026-04-26 07:32 31.02680 -9.02568 15524 ft 322 kts 203°
2026-04-26 07:33 31.00618 -9.03587 15284 ft 321 kts 203°
2026-04-26 07:33 30.98598 -9.04594 15055 ft 320 kts 203°
2026-04-26 07:33 30.96567 -9.05609 14801 ft 316 kts 203°
2026-04-26 07:33 30.94557 -9.06614 14492 ft 313 kts 203°
2026-04-26 07:34 30.92558 -9.07613 14186 ft 312 kts 203°
2026-04-26 07:34 30.90564 -9.08609 13864 ft 311 kts 202°
2026-04-26 07:34 30.88576 -9.09600 13517 ft 311 kts 202°
2026-04-26 07:34 30.86591 -9.10591 13144 ft 310 kts 202°
2026-04-26 07:35 30.84614 -9.11577 12802 ft 309 kts 202°
2026-04-26 07:35 30.82645 -9.12558 12467 ft 307 kts 202°
2026-04-26 07:35 30.80686 -9.13533 12144 ft 305 kts 202°
2026-04-26 07:35 30.78738 -9.14503 11824 ft 304 kts 201°
2026-04-26 07:36 30.76796 -9.15470 11508 ft 303 kts 201°
2026-04-26 07:36 30.74862 -9.16432 11178 ft 302 kts 201°
2026-04-26 07:36 30.72935 -9.17390 10858 ft 301 kts 201°
2026-04-26 07:36 30.71016 -9.18343 10544 ft 299 kts 201°
2026-04-26 07:37 30.69110 -9.19301 10263 ft 297 kts 201°
2026-04-26 07:37 30.67248 -9.20259 10141 ft 289 kts 201°
2026-04-26 07:37 30.65435 -9.21197 9996 ft 282 kts 200°
2026-04-26 07:37 30.63660 -9.22092 9859 ft 275 kts 200°
2026-04-26 07:38 30.61909 -9.22981 9566 ft 275 kts 200°
2026-04-26 07:38 30.60167 -9.23875 9282 ft 273 kts 200°
2026-04-26 07:38 30.58443 -9.24760 9011 ft 269 kts 200°
2026-04-26 07:38 30.56680 -9.25404 8703 ft 264 kts 177°
2026-04-26 07:39 30.54953 -9.24891 8454 ft 255 kts 147°
2026-04-26 07:39 30.53613 -9.23582 8194 ft 252 kts 127°
2026-04-26 07:39 30.52609 -9.21927 7933 ft 250 kts 123°
2026-04-26 07:39 30.51601 -9.20283 7671 ft 249 kts 126°
2026-04-26 07:40 30.50498 -9.18740 7418 ft 248 kts 131°
2026-04-26 07:40 30.49293 -9.17313 7165 ft 247 kts 136°
2026-04-26 07:40 30.48006 -9.15996 6912 ft 247 kts 140°
2026-04-26 07:40 30.46645 -9.14791 6658 ft 246 kts 143°
2026-04-26 07:41 30.45214 -9.13699 6405 ft 246 kts 147°
2026-04-26 07:41 30.43726 -9.12726 6140 ft 246 kts 151°
2026-04-26 07:41 30.42184 -9.11873 5871 ft 246 kts 154°
2026-04-26 07:41 30.40594 -9.11145 5603 ft 246 kts 158°
2026-04-26 07:42 30.38960 -9.10544 5344 ft 246 kts 162°
2026-04-26 07:42 30.37306 -9.10079 5153 ft 243 kts 165°
2026-04-26 07:42 30.35635 -9.09729 4917 ft 246 kts 168°
2026-04-26 07:42 30.33915 -9.09763 4782 ft 254 kts 196°
2026-04-26 07:43 30.32459 -9.10940 4681 ft 264 kts 232°
2026-04-26 07:43 30.31793 -9.12903 4567 ft 263 kts 261°
2026-04-26 07:43 30.31626 -9.15003 4347 ft 264 kts 270°
2026-04-26 07:43 30.31684 -9.17128 4031 ft 265 kts 273°
2026-04-26 07:44 30.31755 -9.19272 3680 ft 268 kts 272°
2026-04-26 07:44 30.31802 -9.21439 3328 ft 271 kts 272°
2026-04-26 07:44 30.31850 -9.23631 2962 ft 274 kts 272°
2026-04-26 07:44 30.31902 -9.25848 2589 ft 276 kts 272°
2026-04-26 07:45 30.31953 -9.28078 2220 ft 278 kts 272°
2026-04-26 07:45 30.32006 -9.30318 1847 ft 279 kts 272°
2026-04-26 07:45 30.32058 -9.32564 1472 ft 280 kts 271°
2026-04-26 07:45 30.32111 -9.34815 1105 ft 280 kts 271°
2026-04-26 07:46 30.32165 -9.37070 738 ft 280 kts 271°
2026-04-26 07:46 30.32219 -9.39327 357 ft 281 kts 271°
2026-04-26 07:46 30.32245 -9.40400 228 ft 0 kts 271°